Olbia/Costa Smer, Italy

2:29 PM CET on February 22, 2017 (GMT +0100)
Costa Smeralda

Weather History for LIEO - April, 2013

Change the Weather History Date:

Saturday, April 6, 2013

  Actual Average Record
Temperature  
Mean Temperature 50 °F -  
Max Temperature 59 °F 66 °F 71 °F (1997)
Min Temperature 41 °F 47 °F 39 °F (2005)
Degree Days  
Heating Degree Days 15    
Moisture  
Dew Point 49 °F    
Average Humidity 90    
Maximum Humidity 100    
Minimum Humidity 82    
Precipitation  
Precipitation 0.00 in 0.07 in - ()
Sea Level Pressure  
Sea Level Pressure 29.73 in    
Wind  
Wind Speed 4 mph ()    
Max Wind Speed 13 mph    
Max Gust Speed -    
Visibility 5.7 miles    
Events Rain    
Averages and records for this station are not official NWS values.
T = Trace of Precipitation, MM = Missing Value Source: Averaged Metar Reports

Daily Weather History Graph

Daily Weather History Graph

Search for Another Location

Airport or City:

Trip Planner

Search our weather history database for the weather conditions in past years. The results will help you decide how hot, cold, wet, or windy it might be!

Date:

Astronomy

Apr. 06, 2013 Rise Set
Actual Time 6:57 AM CEST 7:52 PM CEST
Civil Twilight 6:29 AM CEST 8:20 PM CEST
Nautical Twilight 5:56 AM CEST 8:53 PM CEST
Astronomical Twilight 5:21 AM CEST 9:27 PM CEST
Moon 4:32 AM CEST (4/6) 4:01 PM CEST (4/6)
Length of Visible Light 13h 50m
Length of Day
12h 54m
Waning Crescent, 17% of the Moon is Illuminated
Apr 6
Waning Crescent
Apr 10
New
Apr 18
First Quarter
Apr 25
Full
May 2
Last Quarter

Hourly Weather History & Observations

Time (CEST) Temp. Windchill Dew Point Humidity Pressure Visibility Wind Dir Wind Speed Gust Speed Precip Events Conditions
12:20 AM 50.0 °F - 46.4 °F 87% 29.77 in - SSW 3.5 mph - N/A   Clear
12:50 AM 48.2 °F - 44.6 °F 87% 29.77 in - Variable 1.2 mph - N/A   Clear
1:20 AM 48.2 °F - 44.6 °F 87% 29.77 in - SW 5.8 mph - N/A   Clear
1:50 AM 46.4 °F - 44.6 °F 93% 29.77 in - Calm Calm - N/A   Clear
2:20 AM 44.6 °F - 42.8 °F 93% 29.74 in - Variable 2.3 mph - N/A   Clear
2:50 AM 48.2 °F - 44.6 °F 87% 29.74 in - SSW 5.8 mph - N/A   Clear
3:20 AM 44.6 °F - 42.8 °F 93% 29.74 in - Variable 2.3 mph - N/A   Clear
3:50 AM 42.8 °F - 41.0 °F 93% 29.74 in - Variable 2.3 mph - N/A   Clear
4:20 AM 44.6 °F - 42.8 °F 93% 29.74 in - Variable 2.3 mph - N/A   Clear
4:50 AM 44.6 °F - 42.8 °F 93% 29.74 in - SW 2.3 mph - N/A   Clear
5:20 AM 41.0 °F - 39.2 °F 93% 29.74 in - Variable 2.3 mph - N/A   Clear
5:50 AM 41.0 °F - 39.2 °F 93% 29.74 in - Calm Calm - N/A   Clear
6:20 AM 41.0 °F - 39.2 °F 93% 29.74 in - SSW 2.3 mph - N/A   Clear
6:50 AM 41.0 °F 37.1 °F 41.0 °F 100% 29.74 in - SW 5.8 mph - N/A   Clear
7:20 AM 41.0 °F - 41.0 °F 100% 29.74 in - Variable 2.3 mph - N/A   Clear
7:50 AM 42.8 °F 41.1 °F 41.0 °F 93% 29.74 in - SSW 3.5 mph - N/A   Clear
8:20 AM 44.6 °F - 42.8 °F 93% 29.74 in 6.2 mi Variable 1.2 mph - N/A   Partly Cloudy
8:50 AM 48.2 °F - 46.4 °F 93% 29.74 in 6.2 mi Variable 1.2 mph - N/A   Scattered Clouds
9:20 AM 50.0 °F - 48.2 °F 94% 29.74 in 6.2 mi Variable 1.2 mph - N/A   Scattered Clouds
9:50 AM 51.8 °F - 50.0 °F 94% 29.74 in 6.2 mi Variable 2.3 mph - N/A   Mostly Cloudy
10:20 AM 55.4 °F - 51.8 °F 88% 29.74 in 6.2 mi NNE 5.8 mph - N/A   Mostly Cloudy
10:50 AM 57.2 °F - 53.6 °F 88% 29.74 in 6.2 mi NE 8.1 mph - N/A   Mostly Cloudy
11:20 AM 57.2 °F - 53.6 °F 88% 29.74 in 6.2 mi NE 8.1 mph - N/A   Mostly Cloudy
11:50 AM 59.0 °F - 53.6 °F 82% 29.74 in 6.2 mi ENE 9.2 mph - N/A   Scattered Clouds
12:20 PM 59.0 °F - 53.6 °F 82% 29.74 in 6.2 mi ENE 8.1 mph - N/A   Scattered Clouds
12:50 PM 59.0 °F - 53.6 °F 82% 29.74 in 6.2 mi ENE 10.4 mph - N/A   Scattered Clouds
1:20 PM 59.0 °F - 53.6 °F 82% 29.74 in 6.2 mi ENE 12.7 mph - N/A   Scattered Clouds
1:50 PM 59.0 °F - 53.6 °F 82% 29.74 in 6.2 mi ENE 11.5 mph - N/A   Scattered Clouds
2:20 PM 59.0 °F - 53.6 °F 82% 29.71 in 6.2 mi ENE 10.4 mph - N/A   Scattered Clouds
2:50 PM 57.2 °F - 53.6 °F 88% 29.71 in 6.2 mi ENE 6.9 mph - N/A   Scattered Clouds
3:20 PM 57.2 °F - 53.6 °F 88% 29.71 in 6.2 mi ENE 6.9 mph - N/A Rain Light Rain
3:50 PM 57.2 °F - 53.6 °F 88% 29.71 in 6.2 mi ENE 6.9 mph - N/A Rain Light Rain
4:20 PM 55.4 °F - 53.6 °F 94% 29.71 in 6.2 mi ENE 9.2 mph - N/A Rain Light Rain
4:50 PM 55.4 °F - 51.8 °F 88% 29.68 in 6.2 mi East 11.5 mph - N/A Rain Light Rain
5:20 PM 55.4 °F - 51.8 °F 88% 29.68 in 6.2 mi East 8.1 mph - N/A Rain Light Rain
5:50 PM 55.4 °F - 51.8 °F 88% 29.71 in 6.2 mi East 6.9 mph - N/A   Scattered Clouds
6:20 PM 55.4 °F - 51.8 °F 88% 29.71 in 6.2 mi East 3.5 mph - N/A   Scattered Clouds
6:50 PM 55.4 °F - 51.8 °F 88% 29.71 in 5.0 mi ENE 3.5 mph - N/A Rain Rain
7:20 PM 55.4 °F - 51.8 °F 88% 29.71 in 5.0 mi NE 3.5 mph - N/A Rain Rain
7:50 PM 53.6 °F - 51.8 °F 94% 29.71 in 5.0 mi Variable 2.3 mph - N/A Rain Rain
8:20 PM 55.4 °F - 53.6 °F 94% 29.71 in 5.0 mi ENE 4.6 mph - N/A Rain Light Rain
8:50 PM 55.4 °F - 53.6 °F 94% 29.71 in 5.0 mi Variable 2.3 mph - N/A Rain Light Rain
9:20 PM 55.4 °F - 53.6 °F 94% 29.74 in 5.0 mi ENE 5.8 mph - N/A Rain Light Rain
9:50 PM 55.4 °F - 53.6 °F 94% 29.74 in 5.0 mi ENE 5.8 mph - N/A   Mostly Cloudy
10:20 PM 55.4 °F - 53.6 °F 94% 29.71 in 5.0 mi ENE 9.2 mph - N/A Rain Light Rain
10:50 PM 55.4 °F - 53.6 °F 94% 29.74 in 3.1 mi East 6.9 mph - N/A Rain Rain
11:20 PM 53.6 °F - 51.8 °F 94% 29.74 in 4.3 mi Variable 5.8 mph - N/A   Drizzle
11:50 PM 51.8 °F - 50.0 °F 94% 29.74 in 6.2 mi SSW 11.5 mph - N/A Rain Rain